M I D A S
Marine Information and Data Acquisition System
Tripno 1647 of the Zeeleeuw from 2009-02-26 08:03:46 to 2009-02-26 16:14:52
Back to CruiseResearch ActivitiesStationsMapUnderway DataData graphs

EquipmentUnitsComments
TimeDGPSUTC
LatitudeDGPSDM.mWGS84
LongitudeDGPSDM.mWGS84
SpeedMeteo Stationm/sRelative wind speed
DirectionMeteo StationdegRelative wind direction
TemperatureMeteo Stationdeg CelciusAir temperature
PressureMeteo StationPaAtmospheric pressure
HumidityMeteo Station%Relative humidity
Missing or incorrect values are displayed as -999
Metereological data collected by the RV Zeeleeuw from 2009-02-26 08:00:54 to 2009-02-26 16:33:56
Time Latitude Longitude Speed Direction Temperature Pressure Humidity
2009-02-26 08:01 51°13.661 2°55.96 -999 -999 -999 -999 -999
2009-02-26 08:02 51°13.66 2°55.959 -999 -999 -999 -999 -999
2009-02-26 08:03 51°13.666 2°55.936 -999 -999 -999 -999 -999
2009-02-26 08:04 51°13.687 2°55.851 -999 -999 -999 -999 -999
2009-02-26 08:05 51°13.694 2°55.763 -999 -999 -999 -999 -999
2009-02-26 08:06 51°13.702 2°55.754 -999 -999 -999 -999 -999
2009-02-26 08:07 51°13.707 2°55.757 -999 -999 -999 -999 -999
2009-02-26 08:08 51°13.707 2°55.749 -999 -999 -999 -999 -999
2009-02-26 08:09 51°13.786 2°55.675 -999 -999 -999 -999 -999
2009-02-26 08:10 51°13.908 2°55.577 -999 -999 -999 -999 -999
2009-02-26 08:11 51°14.039 2°55.478 -999 -999 -999 -999 -999
2009-02-26 08:12 51°14.168 2°55.374 -999 -999 -999 -999 -999
2009-02-26 08:13 51°14.279 2°55.228 -999 -999 -999 -999 -999
2009-02-26 08:14 51°14.374 2°55.048 -999 -999 -999 -999 -999
2009-02-26 08:15 51°14.495 2°54.883 -999 -999 -999 -999 -999
2009-02-26 08:16 51°14.634 2°54.707 -999 -999 -999 -999 -999
2009-02-26 08:17 51°14.788 2°54.518 -999 -999 -999 -999 -999
2009-02-26 08:18 51°14.943 2°54.333 -999 -999 -999 -999 -999
2009-02-26 08:19 51°15.096 2°54.157 -999 -999 -999 -999 -999
2009-02-26 08:20 51°15.255 2°53.985 -999 -999 -999 -999 -999
2009-02-26 08:21 51°15.417 2°53.816 -999 -999 -999 -999 -999
2009-02-26 08:22 51°15.583 2°53.657 -999 -999 -999 -999 -999
2009-02-26 08:23 51°15.753 2°53.501 -999 -999 -999 -999 -999
2009-02-26 08:24 51°15.918 2°53.332 -999 -999 -999 -999 -999
2009-02-26 08:25 51°16.084 2°53.171 -999 -999 -999 -999 -999
2009-02-26 08:26 51°16.25 2°53.011 -999 -999 -999 -999 -999
2009-02-26 08:27 51°16.421 2°52.872 -999 -999 -999 -999 -999
2009-02-26 08:28 51°16.601 2°52.772 -999 -999 -999 -999 -999
2009-02-26 08:29 51°16.779 2°52.686 -999 -999 -999 -999 -999
2009-02-26 08:30 51°16.955 2°52.605 -999 -999 -999 -999 -999
2009-02-26 08:31 51°17.129 2°52.528 -999 -999 -999 -999 -999
2009-02-26 08:32 51°17.306 2°52.491 -999 -999 -999 -999 -999
2009-02-26 08:33 51°17.461 2°52.606 -999 -999 -999 -999 -999
2009-02-26 08:34 51°17.593 2°52.786 -999 -999 -999 -999 -999
2009-02-26 08:35 51°17.719 2°52.978 -999 -999 -999 -999 -999
2009-02-26 08:36 51°17.84 2°53.173 -999 -999 -999 -999 -999
2009-02-26 08:37 51°17.964 2°53.363 -999 -999 -999 -999 -999
2009-02-26 08:38 51°18.088 2°53.55 -999 -999 -999 -999 -999
2009-02-26 08:39 51°18.209 2°53.741 -999 -999 -999 -999 -999
2009-02-26 08:40 51°18.304 2°53.97 -999 -999 -999 -999 -999
2009-02-26 08:41 51°18.385 2°54.218 -999 -999 -999 -999 -999
2009-02-26 08:42 51°18.472 2°54.46 -999 -999 -999 -999 -999
2009-02-26 08:43 51°18.559 2°54.698 -999 -999 -999 -999 -999
2009-02-26 08:44 51°18.646 2°54.935 -999 -999 -999 -999 -999
2009-02-26 08:45 51°18.734 2°55.172 -999 -999 -999 -999 -999
2009-02-26 08:46 51°18.814 2°55.415 -999 -999 -999 -999 -999
2009-02-26 08:47 51°18.889 2°55.658 -999 -999 -999 -999 -999
2009-02-26 08:48 51°18.966 2°55.895 -999 -999 -999 -999 -999
2009-02-26 08:49 51°19.045 2°56.128 -999 -999 -999 -999 -999
2009-02-26 08:50 51°19.124 2°56.36 -999 -999 -999 -999 -999
2009-02-26 08:51 51°19.206 2°56.592 -999 -999 -999 -999 -999
2009-02-26 08:52 51°19.284 2°56.826 -999 -999 -999 -999 -999
2009-02-26 08:53 51°19.365 2°57.059 -999 -999 -999 -999 -999
2009-02-26 08:54 51°19.444 2°57.294 -999 -999 -999 -999 -999
2009-02-26 08:55 51°19.524 2°57.529 -999 -999 -999 -999 -999
2009-02-26 08:56 51°19.605 2°57.766 -999 -999 -999 -999 -999
2009-02-26 08:57 51°19.688 2°58.001 -999 -999 -999 -999 -999
2009-02-26 08:58 51°19.769 2°58.238 -999 -999 -999 -999 -999
2009-02-26 08:59 51°19.852 2°58.474 -999 -999 -999 -999 -999
2009-02-26 09:00 51°19.936 2°58.708 -999 -999 -999 -999 -999
2009-02-26 09:01 51°20.02 2°58.943 -999 -999 -999 -999 -999
2009-02-26 09:02 51°20.105 2°59.176 -999 -999 -999 -999 -999
2009-02-26 09:03 51°20.188 2°59.413 -999 -999 -999 -999 -999
2009-02-26 09:04 51°20.271 2°59.652 -999 -999 -999 -999 -999
2009-02-26 09:05 51°20.355 2°59.898 -999 -999 -999 -999 -999
2009-02-26 09:06 51°20.44 3°0.144 -999 -999 -999 -999 -999
2009-02-26 09:07 51°20.524 3°0.387 -999 -999 -999 -999 -999
2009-02-26 09:08 51°20.607 3°0.637 -999 -999 -999 -999 -999
2009-02-26 09:09 51°20.694 3°0.882 -999 -999 -999 -999 -999
2009-02-26 09:10 51°20.776 3°1.133 -999 -999 -999 -999 -999
2009-02-26 09:11 51°20.862 3°1.382 -999 -999 -999 -999 -999
2009-02-26 09:12 51°20.946 3°1.636 -999 -999 -999 -999 -999
2009-02-26 09:13 51°21.035 3°1.885 -999 -999 -999 -999 -999
2009-02-26 09:14 51°21.121 3°2.135 -999 -999 -999 -999 -999
2009-02-26 09:15 51°21.2 3°2.39 -999 -999 -999 -999 -999
2009-02-26 09:16 51°21.246 3°2.667 -999 -999 -999 -999 -999
2009-02-26 09:17 51°21.291 3°2.944 -999 -999 -999 -999 -999
2009-02-26 09:18 51°21.334 3°3.224 -999 -999 -999 -999 -999
2009-02-26 09:19 51°21.38 3°3.503 -999 -999 -999 -999 -999
2009-02-26 09:20 51°21.426 3°3.781 -999 -999 -999 -999 -999
2009-02-26 09:21 51°21.475 3°4.059 -999 -999 -999 -999 -999
2009-02-26 09:22 51°21.525 3°4.338 -999 -999 -999 -999 -999
2009-02-26 09:23 51°21.57 3°4.618 -999 -999 -999 -999 -999
2009-02-26 09:24 51°21.617 3°4.893 -999 -999 -999 -999 -999
2009-02-26 09:25 51°21.664 3°5.169 -999 -999 -999 -999 -999
2009-02-26 09:26 51°21.713 3°5.445 -999 -999 -999 -999 -999
2009-02-26 09:27 51°21.764 3°5.72 -999 -999 -999 -999 -999
2009-02-26 09:28 51°21.815 3°5.996 -999 -999 -999 -999 -999
2009-02-26 09:29 51°21.863 3°6.274 -999 -999 -999 -999 -999
2009-02-26 09:30 51°21.912 3°6.553 -999 -999 -999 -999 -999
2009-02-26 09:31 51°21.968 3°6.826 -999 -999 -999 -999 -999
2009-02-26 09:32 51°22.018 3°7.105 -999 -999 -999 -999 -999
2009-02-26 09:33 51°22.067 3°7.387 -999 -999 -999 -999 -999
2009-02-26 09:34 51°22.125 3°7.666 -999 -999 -999 -999 -999
2009-02-26 09:35 51°22.192 3°7.942 -999 -999 -999 -999 -999
2009-02-26 09:36 51°22.262 3°8.217 -999 -999 -999 -999 -999
2009-02-26 09:37 51°22.339 3°8.486 -999 -999 -999 -999 -999
2009-02-26 09:38 51°22.389 3°8.67 -999 -999 -999 -999 -999
2009-02-26 09:39 51°22.417 3°8.779 -999 -999 -999 -999 -999
2009-02-26 09:40 51°22.435 3°8.853 -999 -999 -999 -999 -999
2009-02-26 09:41 51°22.42 3°8.929 -999 -999 -999 -999 -999
2009-02-26 09:42 51°22.348 3°8.97 -999 -999 -999 -999 -999
2009-02-26 09:43 51°22.275 3°9.052 -999 -999 -999 -999 -999
2009-02-26 09:44 51°22.171 3°9.142 -999 -999 -999 -999 -999
2009-02-26 09:45 51°22.07 3°9.242 -999 -999 -999 -999 -999
2009-02-26 09:46 51°22.006 3°9.295 -999 -999 -999 -999 -999
2009-02-26 09:47 51°21.949 3°9.294 -999 -999 -999 -999 -999
2009-02-26 09:48 51°21.895 3°9.262 -999 -999 -999 -999 -999
2009-02-26 09:49 51°21.846 3°9.208 -999 -999 -999 -999 -999
2009-02-26 09:50 51°21.812 3°9.131 -999 -999 -999 -999 -999
2009-02-26 09:51 51°21.78 3°9.051 -999 -999 -999 -999 -999
2009-02-26 09:52 51°21.756 3°8.978 -999 -999 -999 -999 -999
2009-02-26 09:53 51°21.74 3°8.908 -999 -999 -999 -999 -999
2009-02-26 09:54 51°21.718 3°8.826 -999 -999 -999 -999 -999
2009-02-26 09:55 51°21.688 3°8.741 -999 -999 -999 -999 -999
2009-02-26 09:56 51°21.661 3°8.658 -999 -999 -999 -999 -999
2009-02-26 09:57 51°21.638 3°8.58 -999 -999 -999 -999 -999
2009-02-26 09:58 51°21.615 3°8.501 -999 -999 -999 -999 -999
2009-02-26 09:59 51°21.591 3°8.424 -999 -999 -999 -999 -999
2009-02-26 10:00 51°21.566 3°8.347 -999 -999 -999 -999 -999
2009-02-26 10:01 51°21.542 3°8.257 -999 -999 -999 -999 -999
2009-02-26 10:02 51°21.514 3°8.155 -999 -999 -999 -999 -999
2009-02-26 10:03 51°21.484 3°8.052 -999 -999 -999 -999 -999
2009-02-26 10:04 51°21.457 3°7.947 -999 -999 -999 -999 -999
2009-02-26 10:05 51°21.421 3°7.851 -999 -999 -999 -999 -999
2009-02-26 10:06 51°21.378 3°7.763 -999 -999 -999 -999 -999
2009-02-26 10:07 51°21.334 3°7.674 -999 -999 -999 -999 -999
2009-02-26 10:08 51°21.291 3°7.584 -999 -999 -999 -999 -999
2009-02-26 10:09 51°21.253 3°7.488 -999 -999 -999 -999 -999
2009-02-26 10:10 51°21.217 3°7.389 -999 -999 -999 -999 -999
2009-02-26 10:11 51°21.179 3°7.293 -999 -999 -999 -999 -999
2009-02-26 10:12 51°21.145 3°7.194 -999 -999 -999 -999 -999
2009-02-26 10:13 51°21.12 3°7.09 -999 -999 -999 -999 -999
2009-02-26 10:14 51°21.097 3°6.983 -999 -999 -999 -999 -999
2009-02-26 10:15 51°21.074 3°6.878 -999 -999 -999 -999 -999
2009-02-26 10:16 51°21.051 3°6.771 -999 -999 -999 -999 -999
2009-02-26 10:17 51°21.025 3°6.666 -999 -999 -999 -999 -999
2009-02-26 10:18 51°21.002 3°6.56 -999 -999 -999 -999 -999
2009-02-26 10:19 51°20.978 3°6.453 -999 -999 -999 -999 -999
2009-02-26 10:20 51°20.957 3°6.348 -999 -999 -999 -999 -999
2009-02-26 10:21 51°20.97 3°6.26 -999 -999 -999 -999 -999
2009-02-26 10:22 51°21.008 3°6.248 -999 -999 -999 -999 -999
2009-02-26 10:23 51°21.016 3°6.303 -999 -999 -999 -999 -999
2009-02-26 10:24 51°20.981 3°6.343 -999 -999 -999 -999 -999
2009-02-26 10:25 51°20.946 3°6.355 -999 -999 -999 -999 -999
2009-02-26 10:26 51°20.907 3°6.352 -999 -999 -999 -999 -999
2009-02-26 10:27 51°20.847 3°6.25 -999 -999 -999 -999 -999
2009-02-26 10:28 51°20.794 3°6.068 -999 -999 -999 -999 -999
2009-02-26 10:29 51°20.741 3°5.849 -999 -999 -999 -999 -999
2009-02-26 10:30 51°20.708 3°5.697 -999 -999 -999 -999 -999
2009-02-26 10:31 51°20.664 3°5.613 -999 -999 -999 -999 -999
2009-02-26 10:32 51°20.617 3°5.547 -999 -999 -999 -999 -999
2009-02-26 10:33 51°20.545 3°5.448 -999 -999 -999 -999 -999
2009-02-26 10:34 51°20.45 3°5.313 -999 -999 -999 -999 -999
2009-02-26 10:35 51°20.342 3°5.152 -999 -999 -999 -999 -999
2009-02-26 10:36 51°20.225 3°4.976 -999 -999 -999 -999 -999
2009-02-26 10:37 51°20.097 3°4.773 -999 -999 -999 -999 -999
2009-02-26 10:38 51°19.948 3°4.548 -999 -999 -999 -999 -999
2009-02-26 10:39 51°19.798 3°4.321 -999 -999 -999 -999 -999
2009-02-26 10:40 51°19.648 3°4.096 -999 -999 -999 -999 -999
2009-02-26 10:41 51°19.505 3°3.863 -999 -999 -999 -999 -999
2009-02-26 10:42 51°19.383 3°3.603 -999 -999 -999 -999 -999
2009-02-26 10:43 51°19.258 3°3.349 -999 -999 -999 -999 -999
2009-02-26 10:44 51°19.118 3°3.116 -999 -999 -999 -999 -999
2009-02-26 10:45 51°18.975 3°2.885 -999 -999 -999 -999 -999
2009-02-26 10:46 51°18.827 3°2.661 -999 -999 -999 -999 -999
2009-02-26 10:47 51°18.68 3°2.432 -999 -999 -999 -999 -999
2009-02-26 10:48 51°18.54 3°2.19 -999 -999 -999 -999 -999
2009-02-26 10:49 51°18.401 3°1.944 -999 -999 -999 -999 -999
2009-02-26 10:50 51°18.271 3°1.689 -999 -999 -999 -999 -999
2009-02-26 10:51 51°18.145 3°1.429 -999 -999 -999 -999 -999
2009-02-26 10:52 51°18.024 3°1.163 -999 -999 -999 -999 -999
2009-02-26 10:53 51°17.904 3°0.897 -999 -999 -999 -999 -999
2009-02-26 10:54 51°17.782 3°0.632 -999 -999 -999 -999 -999
2009-02-26 10:55 51°17.664 3°0.366 -999 -999 -999 -999 -999
2009-02-26 10:56 51°17.545 3°0.102 -999 -999 -999 -999 -999
2009-02-26 10:57 51°17.428 2°59.836 -999 -999 -999 -999 -999
2009-02-26 10:58 51°17.311 2°59.569 -999 -999 -999 -999 -999
2009-02-26 10:59 51°17.191 2°59.302 -999 -999 -999 -999 -999
2009-02-26 11:00 51°17.068 2°59.039 -999 -999 -999 -999 -999
2009-02-26 11:01 51°16.949 2°58.771 -999 -999 -999 -999 -999
2009-02-26 11:02 51°16.83 2°58.503 -999 -999 -999 -999 -999
2009-02-26 11:03 51°16.71 2°58.239 -999 -999 -999 -999 -999
2009-02-26 11:04 51°16.593 2°57.972 -999 -999 -999 -999 -999
2009-02-26 11:05 51°16.473 2°57.709 -999 -999 -999 -999 -999
2009-02-26 11:06 51°16.355 2°57.443 -999 -999 -999 -999 -999
2009-02-26 11:07 51°16.237 2°57.18 -999 -999 -999 -999 -999
2009-02-26 11:08 51°16.118 2°56.92 -999 -999 -999 -999 -999
2009-02-26 11:09 51°16.001 2°56.66 -999 -999 -999 -999 -999
2009-02-26 11:10 51°15.885 2°56.401 -999 -999 -999 -999 -999
2009-02-26 11:11 51°15.77 2°56.14 -999 -999 -999 -999 -999
2009-02-26 11:12 51°15.656 2°55.882 -999 -999 -999 -999 -999
2009-02-26 11:13 51°15.542 2°55.627 -999 -999 -999 -999 -999
2009-02-26 11:14 51°15.429 2°55.377 -999 -999 -999 -999 -999
2009-02-26 11:15 51°15.297 2°55.149 -999 -999 -999 -999 -999
2009-02-26 11:16 51°15.157 2°54.931 -999 -999 -999 -999 -999
2009-02-26 11:17 51°15.012 2°54.722 -999 -999 -999 -999 -999
2009-02-26 11:18 51°14.871 2°54.504 -999 -999 -999 -999 -999
2009-02-26 11:19 51°14.725 2°54.296 -999 -999 -999 -999 -999
2009-02-26 11:20 51°14.572 2°54.107 -999 -999 -999 -999 -999
2009-02-26 11:21 51°14.419 2°53.916 -999 -999 -999 -999 -999
2009-02-26 11:22 51°14.273 2°53.718 -999 -999 -999 -999 -999
2009-02-26 11:23 51°14.146 2°53.49 -999 -999 -999 -999 -999
2009-02-26 11:24 51°14.024 2°53.254 -999 -999 -999 -999 -999
2009-02-26 11:25 51°13.903 2°53.017 -999 -999 -999 -999 -999
2009-02-26 11:26 51°13.779 2°52.784 -999 -999 -999 -999 -999
2009-02-26 11:27 51°13.671 2°52.588 -999 -999 -999 -999 -999
2009-02-26 11:28 51°13.574 2°52.401 -999 -999 -999 -999 -999
2009-02-26 11:29 51°13.508 2°52.188 -999 -999 -999 -999 -999
2009-02-26 11:30 51°13.482 2°51.956 -999 -999 -999 -999 -999
2009-02-26 11:31 51°13.493 2°51.718 -999 -999 -999 -999 -999
2009-02-26 11:32 51°13.456 2°51.497 -999 -999 -999 -999 -999
2009-02-26 11:33 51°13.376 2°51.325 -999 -999 -999 -999 -999
2009-02-26 11:34 51°13.313 2°51.284 -999 -999 -999 -999 -999
2009-02-26 11:35 51°13.261 2°51.273 -999 -999 -999 -999 -999
2009-02-26 11:36 51°13.204 2°51.225 -999 -999 -999 -999 -999
2009-02-26 11:37 51°13.162 2°51.176 -999 -999 -999 -999 -999
2009-02-26 11:38 51°13.135 2°51.148 -999 -999 -999 -999 -999
2009-02-26 11:39 51°13.113 2°51.112 -999 -999 -999 -999 -999
2009-02-26 11:40 51°13.088 2°51.062 -999 -999 -999 -999 -999
2009-02-26 11:41 51°13.056 2°51.016 -999 -999 -999 -999 -999
2009-02-26 11:42 51°13.021 2°50.97 -999 -999 -999 -999 -999
2009-02-26 11:43 51°12.987 2°50.923 -999 -999 -999 -999 -999
2009-02-26 11:44 51°12.951 2°50.878 -999 -999 -999 -999 -999
2009-02-26 11:45 51°12.914 2°50.825 -999 -999 -999 -999 -999
2009-02-26 11:46 51°12.875 2°50.769 -999 -999 -999 -999 -999
2009-02-26 11:47 51°12.839 2°50.719 -999 -999 -999 -999 -999
2009-02-26 11:48 51°12.815 2°50.667 -999 -999 -999 -999 -999
2009-02-26 11:49 51°12.797 2°50.607 -999 -999 -999 -999 -999
2009-02-26 11:50 51°12.777 2°50.545 -999 -999 -999 -999 -999
2009-02-26 11:51 51°12.755 2°50.48 -999 -999 -999 -999 -999
2009-02-26 11:52 51°12.733 2°50.415 -999 -999 -999 -999 -999
2009-02-26 11:53 51°12.712 2°50.348 -999 -999 -999 -999 -999
2009-02-26 11:54 51°12.69 2°50.284 -999 -999 -999 -999 -999
2009-02-26 11:55 51°12.668 2°50.22 -999 -999 -999 -999 -999
2009-02-26 11:56 51°12.647 2°50.158 -999 -999 -999 -999 -999
2009-02-26 11:57 51°12.624 2°50.096 -999 -999 -999 -999 -999
2009-02-26 11:58 51°12.602 2°50.035 -999 -999 -999 -999 -999
2009-02-26 11:59 51°12.581 2°49.979 -999 -999 -999 -999 -999
2009-02-26 12:00 51°12.561 2°49.92 -999 -999 -999 -999 -999
2009-02-26 12:01 51°12.54 2°49.863 -999 -999 -999 -999 -999
2009-02-26 12:02 51°12.519 2°49.811 -999 -999 -999 -999 -999
2009-02-26 12:03 51°12.5 2°49.757 -999 -999 -999 -999 -999
2009-02-26 12:04 51°12.481 2°49.703 -999 -999 -999 -999 -999
2009-02-26 12:05 51°12.462 2°49.649 -999 -999 -999 -999 -999
2009-02-26 12:06 51°12.453 2°49.599 -999 -999 -999 -999 -999
2009-02-26 12:07 51°12.462 2°49.568 -999 -999 -999 -999 -999
2009-02-26 12:08 51°12.474 2°49.543 -999 -999 -999 -999 -999
2009-02-26 12:09 51°12.475 2°49.503 -999 -999 -999 -999 -999
2009-02-26 12:10 51°12.435 2°49.36 -999 -999 -999 -999 -999
2009-02-26 12:11 51°12.376 2°49.17 -999 -999 -999 -999 -999
2009-02-26 12:12 51°12.305 2°48.94 -999 -999 -999 -999 -999
2009-02-26 12:13 51°12.234 2°48.707 -999 -999 -999 -999 -999
2009-02-26 12:14 51°12.161 2°48.475 -999 -999 -999 -999 -999
2009-02-26 12:15 51°12.09 2°48.239 -999 -999 -999 -999 -999
2009-02-26 12:16 51°12.021 2°48 -999 -999 -999 -999 -999
2009-02-26 12:17 51°11.952 2°47.761 -999 -999 -999 -999 -999
2009-02-26 12:18 51°11.877 2°47.527 -999 -999 -999 -999 -999
2009-02-26 12:19 51°11.807 2°47.29 -999 -999 -999 -999 -999
2009-02-26 12:20 51°11.741 2°47.048 -999 -999 -999 -999 -999
2009-02-26 12:21 51°11.713 2°46.789 -999 -999 -999 -999 -999
2009-02-26 12:22 51°11.687 2°46.532 -999 -999 -999 -999 -999
2009-02-26 12:23 51°11.654 2°46.275 -999 -999 -999 -999 -999
2009-02-26 12:24 51°11.622 2°46.015 -999 -999 -999 -999 -999
2009-02-26 12:25 51°11.591 2°45.755 -999 -999 -999 -999 -999
2009-02-26 12:26 51°11.561 2°45.497 -999 -999 -999 -999 -999
2009-02-26 12:27 51°11.533 2°45.237 -999 -999 -999 -999 -999
2009-02-26 12:28 51°11.502 2°44.979 -999 -999 -999 -999 -999
2009-02-26 12:29 51°11.47 2°44.723 -999 -999 -999 -999 -999
2009-02-26 12:30 51°11.424 2°44.471 -999 -999 -999 -999 -999
2009-02-26 12:31 51°11.364 2°44.225 -999 -999 -999 -999 -999
2009-02-26 12:32 51°11.3 2°43.982 -999 -999 -999 -999 -999
2009-02-26 12:33 51°11.242 2°43.731 -999 -999 -999 -999 -999
2009-02-26 12:34 51°11.181 2°43.477 -999 -999 -999 -999 -999
2009-02-26 12:35 51°11.122 2°43.233 -999 -999 -999 -999 -999
2009-02-26 12:36 51°11.063 2°42.989 -999 -999 -999 -999 -999
2009-02-26 12:37 51°11.005 2°42.744 -999 -999 -999 -999 -999
2009-02-26 12:38 51°10.946 2°42.5 -999 -999 -999 -999 -999
2009-02-26 12:39 51°10.883 2°42.26 -999 -999 -999 -999 -999
2009-02-26 12:40 51°10.822 2°42.017 -999 -999 -999 -999 -999
2009-02-26 12:41 51°10.764 2°41.772 -999 -999 -999 -999 -999
2009-02-26 12:42 51°10.701 2°41.526 -999 -999 -999 -999 -999
2009-02-26 12:43 51°10.643 2°41.28 -999 -999 -999 -999 -999
2009-02-26 12:44 51°10.586 2°41.033 -999 -999 -999 -999 -999
2009-02-26 12:45 51°10.531 2°40.789 -999 -999 -999 -999 -999
2009-02-26 12:46 51°10.47 2°40.55 -999 -999 -999 -999 -999
2009-02-26 12:47 51°10.412 2°40.309 -999 -999 -999 -999 -999
2009-02-26 12:48 51°10.354 2°40.067 -999 -999 -999 -999 -999
2009-02-26 12:49 51°10.299 2°39.824 -999 -999 -999 -999 -999
2009-02-26 12:50 51°10.24 2°39.581 -999 -999 -999 -999 -999
2009-02-26 12:51 51°10.18 2°39.338 -999 -999 -999 -999 -999
2009-02-26 12:52 51°10.124 2°39.092 -999 -999 -999 -999 -999
2009-02-26 12:53 51°10.068 2°38.844 -999 -999 -999 -999 -999
2009-02-26 12:54 51°10.013 2°38.6 -999 -999 -999 -999 -999
2009-02-26 12:55 51°9.954 2°38.358 -999 -999 -999 -999 -999
2009-02-26 12:56 51°9.896 2°38.117 -999 -999 -999 -999 -999
2009-02-26 12:57 51°9.84 2°37.875 -999 -999 -999 -999 -999
2009-02-26 12:58 51°9.786 2°37.629 -999 -999 -999 -999 -999
2009-02-26 12:59 51°9.731 2°37.384 -999 -999 -999 -999 -999
2009-02-26 13:00 51°9.674 2°37.138 -999 -999 -999 -999 -999
2009-02-26 13:01 51°9.617 2°36.891 -999 -999 -999 -999 -999
2009-02-26 13:02 51°9.56 2°36.64 -999 -999 -999 -999 -999
2009-02-26 13:03 51°9.507 2°36.386 -999 -999 -999 -999 -999
2009-02-26 13:04 51°9.453 2°36.135 -999 -999 -999 -999 -999
2009-02-26 13:05 51°9.395 2°35.881 -999 -999 -999 -999 -999
2009-02-26 13:06 51°9.341 2°35.625 -999 -999 -999 -999 -999
2009-02-26 13:07 51°9.283 2°35.367 -999 -999 -999 -999 -999
2009-02-26 13:08 51°9.224 2°35.11 -999 -999 -999 -999 -999
2009-02-26 13:09 51°9.166 2°34.852 -999 -999 -999 -999 -999
2009-02-26 13:10 51°9.117 2°34.596 -999 -999 -999 -999 -999
2009-02-26 13:11 51°9.066 2°34.347 -999 -999 -999 -999 -999
2009-02-26 13:12 51°9.01 2°34.104 -999 -999 -999 -999 -999
2009-02-26 13:13 51°8.951 2°33.86 -999 -999 -999 -999 -999
2009-02-26 13:14 51°8.893 2°33.609 -999 -999 -999 -999 -999
2009-02-26 13:15 51°8.835 2°33.352 -999 -999 -999 -999 -999
2009-02-26 13:16 51°8.777 2°33.092 -999 -999 -999 -999 -999
2009-02-26 13:17 51°8.719 2°32.83 -999 -999 -999 -999 -999
2009-02-26 13:18 51°8.665 2°32.661 -999 -999 -999 -999 -999
2009-02-26 13:19 51°8.61 2°32.66 -999 -999 -999 -999 -999
2009-02-26 13:20 51°8.563 2°32.694 -999 -999 -999 -999 -999
2009-02-26 13:21 51°8.523 2°32.728 -999 -999 -999 -999 -999
2009-02-26 13:22 51°8.489 2°32.751 -999 -999 -999 -999 -999
2009-02-26 13:23 51°8.46 2°32.763 -999 -999 -999 -999 -999
2009-02-26 13:24 51°8.434 2°32.742 -999 -999 -999 -999 -999
2009-02-26 13:25 51°8.438 2°32.678 -999 -999 -999 -999 -999
2009-02-26 13:26 51°8.492 2°32.629 -999 -999 -999 -999 -999
2009-02-26 13:27 51°8.571 2°32.63 -999 -999 -999 -999 -999
2009-02-26 13:28 51°8.647 2°32.654 -999 -999 -999 -999 -999
2009-02-26 13:29 51°8.72 2°32.693 -999 -999 -999 -999 -999
2009-02-26 13:30 51°8.786 2°32.766 -999 -999 -999 -999 -999
2009-02-26 13:31 51°8.827 2°32.877 -999 -999 -999 -999 -999
2009-02-26 13:32 51°8.839 2°32.996 -999 -999 -999 -999 -999
2009-02-26 13:33 51°8.834 2°33.108 -999 -999 -999 -999 -999
2009-02-26 13:34 51°8.822 2°33.215 -999 -999 -999 -999 -999
2009-02-26 13:35 51°8.813 2°33.325 -999 -999 -999 -999 -999
2009-02-26 13:36 51°8.81 2°33.442 -999 -999 -999 -999 -999
2009-02-26 13:37 51°8.808 2°33.559 -999 -999 -999 -999 -999
2009-02-26 13:38 51°8.811 2°33.68 -999 -999 -999 -999 -999
2009-02-26 13:39 51°8.819 2°33.804 -999 -999 -999 -999 -999
2009-02-26 13:40 51°8.827 2°33.93 -999 -999 -999 -999 -999
2009-02-26 13:41 51°8.835 2°34.056 -999 -999 -999 -999 -999
2009-02-26 13:42 51°8.852 2°34.182 -999 -999 -999 -999 -999
2009-02-26 13:43 51°8.876 2°34.308 -999 -999 -999 -999 -999
2009-02-26 13:44 51°8.904 2°34.432 -999 -999 -999 -999 -999
2009-02-26 13:45 51°8.935 2°34.555 -999 -999 -999 -999 -999
2009-02-26 13:46 51°8.971 2°34.675 -999 -999 -999 -999 -999
2009-02-26 13:47 51°9.004 2°34.795 -999 -999 -999 -999 -999
2009-02-26 13:48 51°9.034 2°34.913 -999 -999 -999 -999 -999
2009-02-26 13:49 51°9.064 2°35.03 -999 -999 -999 -999 -999
2009-02-26 13:50 51°9.094 2°35.145 -999 -999 -999 -999 -999
2009-02-26 13:51 51°9.123 2°35.26 -999 -999 -999 -999 -999
2009-02-26 13:52 51°9.153 2°35.374 -999 -999 -999 -999 -999
2009-02-26 13:53 51°9.183 2°35.489 -999 -999 -999 -999 -999
2009-02-26 13:54 51°9.212 2°35.605 -999 -999 -999 -999 -999
2009-02-26 13:55 51°9.243 2°35.72 -999 -999 -999 -999 -999
2009-02-26 13:56 51°9.269 2°35.835 -999 -999 -999 -999 -999
2009-02-26 13:57 51°9.277 2°35.946 -999 -999 -999 -999 -999
2009-02-26 13:58 51°9.267 2°36.04 -999 -999 -999 -999 -999
2009-02-26 13:59 51°9.252 2°36.117 -999 -999 -999 -999 -999
2009-02-26 14:00 51°9.239 2°36.175 -999 -999 -999 -999 -999
2009-02-26 14:01 51°9.235 2°36.224 -999 -999 -999 -999 -999
2009-02-26 14:02 51°9.237 2°36.27 -999 -999 -999 -999 -999
2009-02-26 14:03 51°9.243 2°36.318 -999 -999 -999 -999 -999
2009-02-26 14:04 51°9.242 2°36.369 -999 -999 -999 -999 -999
2009-02-26 14:05 51°9.229 2°36.479 -999 -999 -999 -999 -999
2009-02-26 14:06 51°9.297 2°36.574 -999 -999 -999 -999 -999
2009-02-26 14:07 51°9.445 2°36.602 -999 -999 -999 -999 -999
2009-02-26 14:08 51°9.644 2°36.637 -999 -999 -999 -999 -999
2009-02-26 14:09 51°9.858 2°36.615 -999 -999 -999 -999 -999
2009-02-26 14:10 51°10.07 2°36.585 -999 -999 -999 -999 -999
2009-02-26 14:12 51°10.286 2°36.556 -999 -999 -999 -999 -999
2009-02-26 14:13 51°10.498 2°36.535 -999 -999 -999 -999 -999
2009-02-26 14:14 51°10.712 2°36.542 -999 -999 -999 -999 -999
2009-02-26 14:15 51°10.928 2°36.555 -999 -999 -999 -999 -999
2009-02-26 14:16 51°11.142 2°36.572 -999 -999 -999 -999 -999
2009-02-26 14:17 51°11.352 2°36.627 -999 -999 -999 -999 -999
2009-02-26 14:18 51°11.562 2°36.705 -999 -999 -999 -999 -999
2009-02-26 14:19 51°11.771 2°36.777 -999 -999 -999 -999 -999
2009-02-26 14:20 51°11.979 2°36.849 -999 -999 -999 -999 -999
2009-02-26 14:21 51°12.188 2°36.883 -999 -999 -999 -999 -999
2009-02-26 14:22 51°12.397 2°36.893 -999 -999 -999 -999 -999
2009-02-26 14:23 51°12.607 2°36.928 -999 -999 -999 -999 -999
2009-02-26 14:24 51°12.816 2°36.973 -999 -999 -999 -999 -999
2009-02-26 14:25 51°13.026 2°37.017 -999 -999 -999 -999 -999
2009-02-26 14:26 51°13.236 2°37.062 -999 -999 -999 -999 -999
2009-02-26 14:27 51°13.446 2°37.099 -999 -999 -999 -999 -999
2009-02-26 14:28 51°13.645 2°37.05 -999 -999 -999 -999 -999
2009-02-26 14:29 51°13.736 2°36.825 -999 -999 -999 -999 -999
2009-02-26 14:30 51°13.693 2°36.564 -999 -999 -999 -999 -999
2009-02-26 14:31 51°13.605 2°36.324 -999 -999 -999 -999 -999
2009-02-26 14:32 51°13.511 2°36.087 -999 -999 -999 -999 -999
2009-02-26 14:33 51°13.419 2°35.848 -999 -999 -999 -999 -999
2009-02-26 14:34 51°13.343 2°35.595 -999 -999 -999 -999 -999
2009-02-26 14:35 51°13.27 2°35.339 -999 -999 -999 -999 -999
2009-02-26 14:36 51°13.192 2°35.089 -999 -999 -999 -999 -999
2009-02-26 14:37 51°13.119 2°34.835 -999 -999 -999 -999 -999
2009-02-26 14:38 51°13.044 2°34.579 -999 -999 -999 -999 -999
2009-02-26 14:39 51°12.969 2°34.323 -999 -999 -999 -999 -999
2009-02-26 14:40 51°12.894 2°34.068 -999 -999 -999 -999 -999
2009-02-26 14:41 51°12.819 2°33.811 -999 -999 -999 -999 -999
2009-02-26 14:42 51°12.745 2°33.552 -999 -999 -999 -999 -999
2009-02-26 14:43 51°12.666 2°33.295 -999 -999 -999 -999 -999
2009-02-26 14:44 51°12.59 2°33.037 -999 -999 -999 -999 -999
2009-02-26 14:45 51°12.513 2°32.781 -999 -999 -999 -999 -999
2009-02-26 14:46 51°12.444 2°32.524 -999 -999 -999 -999 -999
2009-02-26 14:47 51°12.369 2°32.269 -999 -999 -999 -999 -999
2009-02-26 14:48 51°12.293 2°32.01 -999 -999 -999 -999 -999
2009-02-26 14:49 51°12.218 2°31.75 -999 -999 -999 -999 -999
2009-02-26 14:50 51°12.139 2°31.496 -999 -999 -999 -999 -999
2009-02-26 14:51 51°12.068 2°31.233 -999 -999 -999 -999 -999
2009-02-26 14:52 51°12.007 2°30.963 -999 -999 -999 -999 -999
2009-02-26 14:53 51°11.958 2°30.687 -999 -999 -999 -999 -999
2009-02-26 14:54 51°11.977 2°30.398 -999 -999 -999 -999 -999
2009-02-26 14:55 51°12.094 2°30.175 -999 -999 -999 -999 -999
2009-02-26 14:56 51°12.303 2°30.151 -999 -999 -999 -999 -999
2009-02-26 14:57 51°12.513 2°30.247 -999 -999 -999 -999 -999
2009-02-26 14:58 51°12.707 2°30.4 -999 -999 -999 -999 -999
2009-02-26 14:59 51°12.892 2°30.579 -999 -999 -999 -999 -999
2009-02-26 15:00 51°13.071 2°30.776 -999 -999 -999 -999 -999
2009-02-26 15:01 51°13.251 2°30.968 -999 -999 -999 -999 -999
2009-02-26 15:02 51°13.433 2°31.153 -999 -999 -999 -999 -999
2009-02-26 15:03 51°13.611 2°31.345 -999 -999 -999 -999 -999
2009-02-26 15:04 51°13.788 2°31.541 -999 -999 -999 -999 -999
2009-02-26 15:05 51°13.968 2°31.732 -999 -999 -999 -999 -999
2009-02-26 15:06 51°14.148 2°31.922 -999 -999 -999 -999 -999
2009-02-26 15:07 51°14.328 2°32.11 -999 -999 -999 -999 -999
2009-02-26 15:08 51°14.506 2°32.304 -999 -999 -999 -999 -999
2009-02-26 15:09 51°14.685 2°32.498 -999 -999 -999 -999 -999
2009-02-26 15:10 51°14.864 2°32.691 -999 -999 -999 -999 -999
2009-02-26 15:11 51°15.036 2°32.896 -999 -999 -999 -999 -999
2009-02-26 15:12 51°15.203 2°33.113 -999 -999 -999 -999 -999
2009-02-26 15:13 51°15.37 2°33.328 -999 -999 -999 -999 -999
2009-02-26 15:14 51°15.537 2°33.541 -999 -999 -999 -999 -999
2009-02-26 15:15 51°15.704 2°33.756 -999 -999 -999 -999 -999
2009-02-26 15:16 51°15.874 2°33.964 -999 -999 -999 -999 -999
2009-02-26 15:17 51°16.027 2°34.194 -999 -999 -999 -999 -999
2009-02-26 15:18 51°16.104 2°34.509 -999 -999 -999 -999 -999
2009-02-26 15:19 51°16.173 2°34.835 -999 -999 -999 -999 -999
2009-02-26 15:20 51°16.21 2°35.165 -999 -999 -999 -999 -999
2009-02-26 15:21 51°16.163 2°35.491 -999 -999 -999 -999 -999
2009-02-26 15:22 51°16.125 2°35.828 -999 -999 -999 -999 -999
2009-02-26 15:23 51°16.129 2°36.179 -999 -999 -999 -999 -999
2009-02-26 15:24 51°16.232 2°36.483 -999 -999 -999 -999 -999
2009-02-26 15:25 51°16.407 2°36.702 -999 -999 -999 -999 -999
2009-02-26 15:26 51°16.56 2°36.964 -999 -999 -999 -999 -999
2009-02-26 15:27 51°16.687 2°37.263 -999 -999 -999 -999 -999
2009-02-26 15:28 51°16.804 2°37.574 -999 -999 -999 -999 -999
2009-02-26 15:29 51°16.917 2°37.893 -999 -999 -999 -999 -999
2009-02-26 15:30 51°17.031 2°38.209 -999 -999 -999 -999 -999
2009-02-26 15:31 51°17.147 2°38.517 -999 -999 -999 -999 -999
2009-02-26 15:32 51°17.263 2°38.828 -999 -999 -999 -999 -999
2009-02-26 15:33 51°17.354 2°39.15 -999 -999 -999 -999 -999
2009-02-26 15:34 51°17.389 2°39.487 -999 -999 -999 -999 -999
2009-02-26 15:35 51°17.376 2°39.818 -999 -999 -999 -999 -999
2009-02-26 15:36 51°17.364 2°40.152 -999 -999 -999 -999 -999
2009-02-26 15:37 51°17.364 2°40.488 -999 -999 -999 -999 -999
2009-02-26 15:38 51°17.361 2°40.828 -999 -999 -999 -999 -999
2009-02-26 15:39 51°17.361 2°41.165 -999 -999 -999 -999 -999
2009-02-26 15:40 51°17.363 2°41.505 -999 -999 -999 -999 -999
2009-02-26 15:41 51°17.365 2°41.848 -999 -999 -999 -999 -999
2009-02-26 15:42 51°17.364 2°42.189 -999 -999 -999 -999 -999
2009-02-26 15:43 51°17.362 2°42.527 -999 -999 -999 -999 -999
2009-02-26 15:44 51°17.363 2°42.866 -999 -999 -999 -999 -999
2009-02-26 15:45 51°17.343 2°43.194 -999 -999 -999 -999 -999
2009-02-26 15:46 51°17.259 2°43.482 -999 -999 -999 -999 -999
2009-02-26 15:47 51°17.14 2°43.739 -999 -999 -999 -999 -999
2009-02-26 15:48 51°17.02 2°43.995 -999 -999 -999 -999 -999
2009-02-26 15:49 51°16.905 2°44.254 -999 -999 -999 -999 -999
2009-02-26 15:50 51°16.795 2°44.52 -999 -999 -999 -999 -999
2009-02-26 15:51 51°16.696 2°44.799 -999 -999 -999 -999 -999
2009-02-26 15:52 51°16.607 2°45.084 -999 -999 -999 -999 -999
2009-02-26 15:53 51°16.541 2°45.388 -999 -999 -999 -999 -999
2009-02-26 15:54 51°16.49 2°45.702 -999 -999 -999 -999 -999
2009-02-26 15:55 51°16.419 2°46.001 -999 -999 -999 -999 -999
2009-02-26 15:56 51°16.344 2°46.297 -999 -999 -999 -999 -999
2009-02-26 15:57 51°16.267 2°46.596 -999 -999 -999 -999 -999
2009-02-26 15:58 51°16.197 2°46.908 -999 -999 -999 -999 -999
2009-02-26 15:59 51°16.124 2°47.216 -999 -999 -999 -999 -999
2009-02-26 16:00 51°16.05 2°47.523 -999 -999 -999 -999 -999
2009-02-26 16:01 51°15.98 2°47.834 -999 -999 -999 -999 -999
2009-02-26 16:02 51°15.905 2°48.144 -999 -999 -999 -999 -999
2009-02-26 16:03 51°15.833 2°48.454 -999 -999 -999 -999 -999
2009-02-26 16:04 51°15.758 2°48.757 -999 -999 -999 -999 -999
2009-02-26 16:05 51°15.682 2°49.06 -999 -999 -999 -999 -999
2009-02-26 16:06 51°15.605 2°49.36 -999 -999 -999 -999 -999
2009-02-26 16:07 51°15.529 2°49.667 -999 -999 -999 -999 -999
2009-02-26 16:08 51°15.473 2°49.986 -999 -999 -999 -999 -999
2009-02-26 16:09 51°15.44 2°50.313 -999 -999 -999 -999 -999
2009-02-26 16:10 51°15.422 2°50.642 -999 -999 -999 -999 -999
2009-02-26 16:11 51°15.404 2°50.974 -999 -999 -999 -999 -999
2009-02-26 16:12 51°15.389 2°51.304 -999 -999 -999 -999 -999
2009-02-26 16:13 51°15.377 2°51.636 -999 -999 -999 -999 -999
2009-02-26 16:14 51°15.342 2°51.961 -999 -999 -999 -999 -999
2009-02-26 16:15 51°15.284 2°52.275 -999 -999 -999 -999 -999
2009-02-26 16:16 51°15.22 2°52.584 -999 -999 -999 -999 -999
2009-02-26 16:17 51°15.155 2°52.892 -999 -999 -999 -999 -999
2009-02-26 16:18 51°15.093 2°53.197 -999 -999 -999 -999 -999
2009-02-26 16:19 51°15.02 2°53.492 -999 -999 -999 -999 -999
2009-02-26 16:20 51°14.942 2°53.78 -999 -999 -999 -999 -999
2009-02-26 16:21 51°14.853 2°54.062 -999 -999 -999 -999 -999
2009-02-26 16:22 51°14.742 2°54.318 -999 -999 -999 -999 -999
2009-02-26 16:23 51°14.621 2°54.568 -999 -999 -999 -999 -999
2009-02-26 16:24 51°14.494 2°54.812 -999 -999 -999 -999 -999
2009-02-26 16:25 51°14.37 2°55.048 -999 -999 -999 -999 -999
2009-02-26 16:26 51°14.25 2°55.274 -999 -999 -999 -999 -999
2009-02-26 16:27 51°14.109 2°55.418 -999 -999 -999 -999 -999
2009-02-26 16:28 51°13.972 2°55.519 -999 -999 -999 -999 -999
2009-02-26 16:29 51°13.852 2°55.608 -999 -999 -999 -999 -999
2009-02-26 16:30 51°13.762 2°55.706 -999 -999 -999 -999 -999
2009-02-26 16:31 51°13.696 2°55.833 -999 -999 -999 -999 -999
2009-02-26 16:32 51°13.662 2°55.946 -999 -999 -999 -999 -999
2009-02-26 16:33 51°13.662 2°55.955 -999 -999 -999 -999 -999